DW2806 Weather Reports


time (UTC)temp
C
wind
direction
speed
KPH
gust
KPH
rain 1hr
cm
rain 24hr
cm
rain mn
cm
humidity
%
barometer
mb
20260506103002 16 304 0.0 3.2 0.00 0.00 0.00 83 1025.7
20260506101501 16 210 0.0 0.0 0.00 0.00 0.00 84 1025.7
20260506094559 15 279 0.0 0.0 0.00 0.00 0.00 83 1025.7
20260506093056 15 279 0.0 3.2 0.00 0.00 0.00 83 1025.7
20260506091600 16 287 0.0 0.0 0.00 0.00 0.00 82 1025.7
20260506090053 16 239 0.0 0.0 0.00 0.00 0.00 81 1025.7
20260506084554 16 267 0.0 6.4 0.00 0.00 0.00 81 1025.7
20260506083052 16 316 0.0 3.2 0.00 0.00 0.00 80 1025.7
20260506081552 16 336 0.0 6.4 0.00 0.00 0.00 79 1025.7
20260506073047 16 249 0.0 0.0 0.00 0.00 0.00 78 1025.7
20260506071545 16 246 0.0 8.0 0.00 0.00 0.00 77 1025.7
20260506061541 17 147 0.0 6.4 0.00 0.00 0.00 74 1025.7
20260506044532 18 285 0.0 11.3 0.00 0.00 0.00 69 1025.7
20260506043030 17 279 0.0 8.0 0.00 0.00 0.00 69 1025.7
20260506041529 17 48 1.6 12.9 0.00 0.00 0.00 69 1025.7
20260506040036 17 247 0.0 1.6 0.00 0.00 0.00 68 1025.7
20260506034627 18 257 0.0 16.1 0.00 0.00 0.00 67 1025.7
20260506033026 18 298 0.0 9.7 0.00 0.00 0.00 67 1025.7
20260506031528 18 186 0.0 0.0 0.00 0.00 0.00 67 1025.7
20260506030024 18 185 0.0 0.0 0.00 0.00 0.00 66 1025.7
20260506024528 18 235 0.0 8.0 0.00 0.00 0.00 66 1025.7
20260506023028 17 237 0.0 0.0 0.00 0.00 0.00 67 1025.7
20260506021531 18 235 0.0 0.0 0.00 0.00 0.00 67 1025.7
20260506020022 18 235 0.0 0.0 0.00 0.00 0.00 67 1025.7
20260506014521 18 171 0.0 0.0 0.00 0.00 0.00 66 1025.7
20260506013020 18 171 0.0 1.6 0.00 0.00 0.00 65 1025.7
20260506011521 18 256 0.0 1.6 0.00 0.00 0.00 64 1025.7
20260506010038 19 131 0.0 11.3 0.00 0.00 0.00 63 1025.7
20260506004519 19 247 0.0 11.3 0.00 0.00 0.00 62 1025.7
20260506003019 20 102 0.0 6.4 0.00 0.00 0.00 61 1025.7
20260506001519 20 45 0.0 8.0 0.00 0.00 0.00 59 1025.7
20260506000019 21 183 1.6 8.0 0.00 0.00 0.00 57 1025.7
20260505234532 21 212 0.0 11.3 0.00 0.00 0.00 56 1025.7
20260505233018 22 273 0.0 11.3 0.00 0.00 0.00 55 1025.7
20260505231517 22 258 0.0 8.0 0.00 0.00 0.00 55 1025.7
20260505230016 22 53 0.0 9.7 0.00 0.00 0.00 53 1025.7
20260505224516 23 63 0.0 11.3 0.00 0.00 0.00 52 1025.7
20260505223015 23 274 0.0 11.3 0.00 0.00 0.00 52 1025.7
20260505221515 23 275 1.6 9.7 0.00 0.00 0.00 51 1025.7
20260505220014 25 260 4.8 20.9 0.00 0.00 0.00 48 1025.7
20260505214517 25 268 1.6 14.5 0.00 0.00 0.00 48 1025.7
20260505213013 25 264 0.0 14.5 0.00 0.00 0.00 46 1025.7
20260505211513 26 279 4.8 20.9 0.00 0.00 0.00 45 1025.7
20260505210012 26 24 3.2 11.3 0.00 0.00 0.00 45 1025.7
20260505204511 26 180 4.8 12.9 0.00 0.00 0.00 43 1025.7
20260505203017 27 295 4.8 14.5 0.00 0.00 0.00 42 1025.7
20260505201510 27 229 4.8 14.5 0.00 0.00 0.00 42 1025.7
20260505200108 27 174 1.6 12.9 0.00 0.00 0.00 41 1025.7
20260505194509 27 275 0.0 12.9 0.00 0.00 0.00 44 1025.7
20260505193010 27 254 4.8 14.5 0.00 0.00 0.00 44 1025.7
20260505191507 28 264 4.8 16.1 0.00 0.00 0.00 43 1025.7
20260505190004 28 251 3.2 16.1 0.00 0.00 0.00 44 1025.7
20260505184504 29 268 3.2 8.0 0.00 0.00 0.00 43 1025.7
20260505183002 29 137 4.8 17.7 0.00 0.00 0.00 41 1025.7
20260505181600 29 327 3.2 19.3 0.00 0.00 0.00 38 1025.7
20260505180109 29 69 6.4 16.1 0.00 0.00 0.00 40 1025.7
20260505174605 29 290 3.2 16.1 0.00 0.00 0.00 39 1025.7
20260505173057 29 271 3.2 12.9 0.00 0.00 0.00 40 1025.7
20260505171553 28 315 0.0 9.7 0.00 0.00 0.00 39 1025.7
20260505170053 28 267 3.2 12.9 0.00 0.00 0.00 39 1025.7
20260505164551 28 320 0.0 9.7 0.00 0.00 0.00 38 1025.7
20260505163049 27 350 0.0 14.5 0.00 0.00 0.00 41 1025.7
20260505161545 27 273 1.6 11.3 0.00 0.00 0.00 45 1025.7
20260505153034 25 31 0.0 9.7 0.00 0.00 0.00 49 1025.7
20260505151532 24 277 0.0 8.0 0.00 0.00 0.00 53 1025.7
20260505124504 18 253 0.0 6.4 0.00 0.00 0.00 67 1025.7
20260505123001 17 325 0.0 3.2 0.00 0.00 0.00 68 1025.7
20260505121558 17 251 0.0 11.3 0.00 0.00 0.00 70 1025.7
20260505120053 16 271 0.0 1.6 0.00 0.00 0.00 74 1025.7
20260505114549 15 236 0.0 0.0 0.00 0.00 0.00 75 1025.7
20260505113045 14 235 0.0 6.4 0.00 0.00 0.00 78 1025.7
20260505111543 13 246 0.0 9.7 0.00 0.00 0.00 79 1025.7